Starlink 30492

operational
NORAD ID: 57921 Int'l Des: 2023-147 Owner: SPXS Country: US Constellation: starlink
LEOCIRCULAR

About Starlink 30492

Description loading...

Live Position

Loading 3D Globe...

Upcoming Passes

Altitude History

Altitude vs Time

uPlot chart will show altitude changes over time

Two-Line Element Set

1 57921U 23147J 26093.64928017 -.00003732 00000-0 -12630-3 0 9990
2 57921 43.0026 184.3830 0000703 250.8468 109.2307 15.27542711140418
Epoch: Apr 3, 2026 • Age: 15 hours

Current Status

Altitude 483.2 km
Velocity 7.63 km/s
Sub-Earth Point -3.05°S, 73.89°E
Launch Date Sep 24, 2023
Age 2.5 years
Type internet

Technical Details

Classification Payload
Mass 730.00 kg
Dry Mass 700.00 kg
Total Mass 730.00 kg
Length 0.30 m
Diameter 4.10 m
Span 29.00 m
Shape Box + pan
Manufacturer SPXS
Bus Type Starlink V2M
Phase Status In Orbit
Owner/State SPXS/US

Large Constellations

Loading constellations...